Location: Eyeline Observatory
(43.2182°N, 78.8632°W)
Time: 08:41:05
(UTC-04:00)

Vanguard 3 - All Passes

Search period start: 20 October 2017 00:00
Search period end: 30 October 2017 00:00
Orbit: 510 x 3263 km, 33.3° (Epoch: 19 October)

Date Brightness Start Highest point End Pass type
(mag) Time Alt. Az. Time Alt. Az. Time Alt. Az.
20 Oct - 03:42:15 10° SSW 03:53:57 25° SSE 04:02:12 10° ESE visible
20 Oct - 05:55:17 10° SW 06:07:12 39° S 06:14:19 10° ESE visible
20 Oct - 08:10:37 10° WSW 08:19:19 38° S 08:24:35 10° ESE daylight
20 Oct - 10:26:16 10° WSW 10:30:00 16° SSW 10:32:57 10° S daylight
21 Oct - 02:28:45 10° S 02:39:02 19° SSE 02:47:08 10° ESE visible
21 Oct - 04:39:26 10° SW 04:52:43 36° SSE 05:01:08 10° ESE visible
21 Oct - 06:54:26 10° WSW 07:05:36 44° S 07:12:04 10° ESE visible
21 Oct - 09:10:11 10° WSW 09:17:04 29° SSW 09:21:35 10° SE daylight
22 Oct - 01:18:31 10° SSE 01:23:59 12° SE 01:28:58 10° ESE visible
22 Oct - 03:24:10 10° SSW 03:37:52 30° SSE 03:47:21 10° ESE visible
22 Oct - 05:38:03 10° WSW 05:51:23 44° S 05:59:16 10° ESE visible
22 Oct - 07:54:01 10° WSW 08:03:44 40° SSW 08:09:29 10° SE daylight
22 Oct - 10:10:22 10° WSW 10:14:23 16° SW 10:17:32 10° S daylight
23 Oct - 02:10:04 10° SSW 02:22:46 23° SSE 02:32:34 10° ESE visible
23 Oct - 04:21:52 10° SW 04:36:43 41° SSE 04:46:02 10° E visible
23 Oct - 06:37:30 10° WSW 06:49:52 47° S 06:56:58 10° ESE visible
23 Oct - 08:53:49 10° W 09:01:27 29° SSW 09:06:23 10° SSE daylight
24 Oct - 00:58:08 10° S 01:07:35 16° SE 01:15:50 10° ESE visible
24 Oct - 03:06:18 10° SSW 03:21:39 35° SSE 03:32:16 10° E visible
24 Oct - 05:20:50 10° WSW 05:35:29 49° S 05:44:07 10° ESE visible
24 Oct - 07:37:18 10° W 07:48:02 42° SSW 07:54:21 10° SE daylight
24 Oct - 09:54:23 10° WSW 09:58:42 16° SW 10:02:02 10° S daylight
25 Oct - 01:51:49 10° SSW 02:06:21 28° SSE 02:17:36 10° E visible
25 Oct - 04:04:25 10° SW 04:20:35 46° SSE 04:30:49 10° E visible
25 Oct - 06:20:31 10° WSW 06:34:03 50° S 06:41:49 10° ESE visible
25 Oct - 08:37:21 10° W 08:45:45 29° SSW 08:51:07 10° SSE daylight
26 Oct - 00:39:05 10° S 00:51:02 20° SE 01:01:25 10° ESE visible
26 Oct - 02:48:37 10° SW 03:05:17 40° SSE 03:16:59 10° E visible
26 Oct - 05:03:38 10° WSW 05:19:27 52° S 05:28:53 10° ESE visible
26 Oct - 07:20:30 10° W 07:32:15 42° SSW 07:39:09 10° SE daylight
26 Oct - 09:38:19 10° WSW 09:42:53 15° SW 09:46:27 10° S daylight
26 Oct - 23:30:44 10° SSE 23:35:54 12° SE 23:40:54 10° ESE night (unlit)
27 Oct - 01:33:53 10° SSW 01:49:47 32° SSE 02:02:21 10° E visible
27 Oct - 03:47:02 10° SW 04:04:20 50° SSE 04:15:30 10° E visible
27 Oct - 06:03:29 10° WSW 06:18:06 51° S 06:26:36 10° ESE visible
27 Oct - 08:20:47 10° W 08:29:55 29° SSW 08:35:47 10° SSE daylight
28 Oct - 00:20:43 10° S 00:34:20 24° SE 00:46:25 10° E visible
28 Oct - 02:31:07 10° SW 02:48:48 44° SSE 03:01:34 10° E visible
28 Oct - 04:46:27 10° WSW 05:03:18 55° S 05:13:34 10° ESE visible
28 Oct - 07:03:37 10° W 07:16:21 42° SSW 07:23:52 10° SE visible
28 Oct - 09:22:12 10° WSW 09:26:59 15° SW 09:30:45 10° SSW daylight
28 Oct - 23:10:23 10° SSE 23:19:10 15° SE 23:27:41 10° ESE night (unlit)
29 Oct - 01:16:15 10° SSW 01:33:06 36° SSE 01:46:52 10° E visible
29 Oct - 03:29:46 10° WSW 03:47:56 54° S 04:00:04 10° E visible
29 Oct - 05:46:25 10° W 06:02:02 52° SSW 06:11:17 10° ESE visible
29 Oct - 08:04:07 10° W 08:13:58 28° SW 08:20:21 10° SSE daylight
